APRIZESAT 2

Last updated on Wed Sep 23 2026 00:03:51 GMT+0000 (Coordinated Universal Time)

1 28366U 04025A 26265.41699306 .00000079 00000+0 38072-4 0 9994 2 28366 98.1132 65.9574 0104607 317.1257 42.1809 14.38068886165616
UTC large
Height (km)
Speed (km/s)
/
Latitude / Longitude
Inclination (degrees)
Orbital Period (minutes)
Azimuth
Elevation
Range (km)
Doppler Factor

Next 0 passes for location: London (51.5072 / 0.1276)

No passes found over London.
APRIZESAT 2